"read_dt","SO2 (ppb)","flags","PMT voltage (V)","lamp voltage (V)","lamp intensity (Hz)","internal temp (C)","react chamber temp (C)","sample flow (l/min)","pres (mmHg)","SO2 bkg (ppb)","SO2 coefficient"
2015-11-22 00:00:00,2165E-3,5C000400,-0724,0829,12281,024.0,045.3,0.264,759.2,01.16,0.508
2015-11-22 00:01:00,2148E-3,5C000400,-0724,0828,12165,024.0,045.3,0.264,759.3,01.16,0.508
2015-11-22 00:02:00,2264E-3,5C000400,-0724,0828,11052,024.0,045.3,0.264,759.0,01.16,0.508
2015-11-22 00:03:00,2109E-3,5C000400,-0724,0829,12083,024.1,045.3,0.264,759.4,01.16,0.508
2015-11-22 00:04:00,2084E-3,5C000400,-0724,0828,12178,024.0,045.4,0.264,759.4,01.16,0.508
2015-11-22 00:05:00,2098E-3,5C000400,-0724,0830,12230,024.0,045.3,0.264,759.0,01.16,0.508
2015-11-22 00:06:00,2073E-3,5C000400,-0724,0827,12353,024.0,045.3,0.264,758.8,01.16,0.508
2015-11-22 00:07:00,2232E-3,5C000400,-0724,0829,12283,024.0,045.3,0.265,759.0,01.16,0.508
2015-11-22 00:08:00,2144E-3,5C000400,-0724,0828,12333,024.0,045.3,0.264,759.3,01.16,0.508
2015-11-22 00:09:00,2144E-3,5C000400,-0724,0828,12224,024.0,045.3,0.264,759.2,01.16,0.508
2015-11-22 00:10:00,2118E-3,5C000400,-0724,0830,11030,024.0,045.3,0.264,759.3,01.16,0.508
2015-11-22 00:11:00,2184E-3,5C000400,-0724,0830,12355,024.1,045.3,0.264,759.5,01.16,0.508
2015-11-22 00:12:00,2091E-3,5C000400,-0724,0829,12478,024.0,045.3,0.264,759.2,01.16,0.508
2015-11-22 00:13:00,2043E-3,5C000400,-0724,0829,9788,024.0,045.3,0.264,759.8,01.16,0.508
2015-11-22 00:14:00,2056E-3,5C000400,-0724,0829,12267,024.0,045.3,0.265,759.8,01.16,0.508
2015-11-22 00:15:00,2219E-3,5C000400,-0724,0828,12055,024.0,045.3,0.264,759.8,01.16,0.508
2015-11-22 00:16:00,2138E-3,5C000400,-0724,0827,12224,024.1,045.3,0.264,759.8,01.16,0.508
2015-11-22 00:17:00,2212E-3,5C000400,-0724,0829,12309,024.0,045.3,0.264,759.8,01.16,0.508
2015-11-22 00:18:00,2077E-3,5C000400,-0724,0828,12147,024.0,045.3,0.264,759.6,01.16,0.508
2015-11-22 00:19:00,2060E-3,5C000400,-0724,0828,12362,024.0,045.3,0.264,759.8,01.16,0.508
2015-11-22 00:20:00,1954E-3,5C000400,-0724,0831,11243,024.0,045.3,0.264,759.6,01.16,0.508
2015-11-22 00:21:00,2160E-3,5C000400,-0724,0827,12272,024.0,045.3,0.265,759.6,01.16,0.508
2015-11-22 00:22:00,2145E-3,5C000400,-0724,0829,12265,024.0,045.3,0.264,759.8,01.16,0.508
2015-11-22 00:23:00,2142E-3,5C000400,-0724,0827,12272,024.0,045.3,0.264,759.8,01.16,0.508
2015-11-22 00:24:00,2179E-3,5C000400,-0724,0828,12137,024.1,045.3,0.265,759.7,01.16,0.508
2015-11-22 00:25:00,2267E-3,5C000400,-0724,0828,12142,024.0,045.3,0.264,759.8,01.16,0.508
2015-11-22 00:26:00,2134E-3,5C000400,-0724,0828,9996,024.0,045.3,0.264,759.7,01.16,0.508
2015-11-22 00:27:00,2317E-3,5C000400,-0724,0829,12375,024.0,045.3,0.265,759.8,01.16,0.508
2015-11-22 00:28:00,2223E-3,5C000400,-0724,0827,12242,024.0,045.3,0.264,759.8,01.16,0.508
2015-11-22 00:29:00,2178E-3,5C000400,-0724,0830,12306,024.0,045.3,0.264,759.7,01.16,0.508
2015-11-22 00:30:00,2073E-3,5C000400,-0724,0829,12379,024.0,045.3,0.265,759.9,01.16,0.508
2015-11-22 00:31:00,2113E-3,5C000400,-0724,0828,12626,024.0,045.3,0.264,759.7,01.16,0.508
2015-11-22 00:32:00,2034E-3,5C000400,-0724,0828,12226,024.0,045.3,0.265,759.5,01.16,0.508
2015-11-22 00:33:00,2202E-3,5C000400,-0724,0826,12075,024.0,045.3,0.264,759.7,01.16,0.508
2015-11-22 00:34:00,2267E-3,5C000400,-0724,0828,12325,024.0,045.3,0.264,759.6,01.16,0.508
2015-11-22 00:35:00,2167E-3,5C000400,-0724,0827,12196,024.0,045.3,0.264,760.1,01.16,0.508
2015-11-22 00:36:00,2160E-3,5C000400,-0724,0830,12266,024.0,045.3,0.265,760.0,01.16,0.508
2015-11-22 00:37:00,2192E-3,5C000400,-0724,0828,12042,024.0,045.3,0.264,759.8,01.16,0.508
2015-11-22 00:38:00,2105E-3,5C000400,-0724,0829,11053,024.0,045.3,0.265,759.7,01.16,0.508
2015-11-22 00:39:00,2196E-3,5C000400,-0724,0829,12203,024.0,045.3,0.264,759.9,01.16,0.508
2015-11-22 00:40:00,2184E-3,5C000400,-0724,0829,12213,024.0,045.3,0.264,760.0,01.16,0.508
2015-11-22 00:41:00,2216E-3,5C000400,-0724,0829,12392,024.0,045.3,0.264,759.8,01.16,0.508
2015-11-22 00:42:00,2309E-3,5C000400,-0724,0828,12263,024.0,045.3,0.264,759.9,01.16,0.508
2015-11-22 00:43:00,2120E-3,5C000400,-0724,0829,12329,024.0,045.3,0.264,760.0,01.16,0.508
2015-11-22 00:44:00,2140E-3,5C000400,-0724,0827,12133,024.0,045.3,0.264,759.9,01.16,0.508
2015-11-22 00:45:00,2159E-3,5C000400,-0724,0829,12210,024.0,045.3,0.264,759.9,01.16,0.508
2015-11-22 00:46:00,2219E-3,5C000400,-0724,0828,12184,024.0,045.3,0.264,759.8,01.16,0.508
2015-11-22 00:47:00,2171E-3,5C000400,-0724,0828,12353,024.0,045.3,0.264,759.9,01.16,0.508
2015-11-22 00:48:00,2060E-3,5C000400,-0724,0827,10879,023.9,045.3,0.264,759.8,01.16,0.508
2015-11-22 00:49:00,2172E-3,5C000400,-0724,0829,12177,024.0,045.3,0.264,760.0,01.16,0.508
2015-11-22 00:50:00,2046E-3,5C000400,-0724,0828,12183,023.9,045.3,0.264,760.0,01.16,0.508
2015-11-22 00:51:00,2250E-3,5C000400,-0724,0829,12277,024.0,045.3,0.265,759.7,01.16,0.508
2015-11-22 00:52:00,2237E-3,5C000400,-0724,0828,12302,024.0,045.3,0.264,760.0,01.16,0.508
2015-11-22 00:53:00,2198E-3,5C000400,-0724,0828,12296,024.0,045.3,0.264,760.1,01.16,0.508
2015-11-22 00:54:00,2071E-3,5C000400,-0724,0830,12303,024.0,045.3,0.264,759.9,01.16,0.508
2015-11-22 00:55:00,2178E-3,5C000400,-0724,0828,12270,024.0,045.3,0.264,759.9,01.16,0.508
2015-11-22 00:56:00,2380E-3,5C000400,-0724,0829,12158,023.9,045.3,0.264,759.8,01.16,0.508
2015-11-22 00:57:00,2247E-3,5C000400,-0724,0829,12475,023.9,045.3,0.265,759.8,01.16,0.508
2015-11-22 00:58:00,2310E-3,5C000400,-0724,0828,12147,023.9,045.3,0.264,759.6,01.16,0.508
2015-11-22 00:59:00,2205E-3,5C000400,-0724,0828,12473,023.9,045.3,0.264,759.9,01.16,0.508
2015-11-22 01:00:00,2229E-3,5C000400,-0724,0827,12072,023.9,045.3,0.265,759.8,01.16,0.508
2015-11-22 01:01:00,2330E-3,5C000400,-0724,0828,12345,023.9,045.3,0.265,759.8,01.16,0.508
2015-11-22 01:02:00,2120E-3,5C000400,-0724,0828,12036,023.9,045.3,0.264,759.8,01.16,0.508
2015-11-22 01:03:00,2166E-3,5C000400,-0724,0829,12460,023.9,045.3,0.265,759.7,01.16,0.508
2015-11-22 01:04:00,2132E-3,5C000400,-0724,0826,12278,023.9,045.3,0.264,759.8,01.16,0.508
2015-11-22 01:05:00,2044E-3,5C000400,-0724,0827,12118,023.9,045.3,0.265,760.0,01.16,0.508
2015-11-22 01:06:00,2157E-3,5C000400,-0724,0828,12221,023.9,045.3,0.265,759.7,01.16,0.508
2015-11-22 01:07:00,2175E-3,5C000400,-0724,0828,12118,023.9,045.3,0.264,759.8,01.16,0.508
2015-11-22 01:08:00,2348E-3,5C000400,-0724,0828,11110,023.9,045.3,0.265,759.7,01.16,0.508
2015-11-22 01:09:00,2317E-3,5C000400,-0724,0827,12133,023.9,045.3,0.265,759.8,01.16,0.508
2015-11-22 01:10:00,2206E-3,5C000400,-0724,0829,12306,023.9,045.3,0.264,759.7,01.16,0.508
2015-11-22 01:11:00,2237E-3,5C000400,-0724,0828,12252,023.9,045.3,0.264,759.8,01.16,0.508
2015-11-22 01:12:00,2189E-3,5C000400,-0724,0829,12381,023.9,045.3,0.265,759.5,01.16,0.508
2015-11-22 01:13:00,2111E-3,5C000400,-0724,0827,12295,023.9,045.3,0.264,759.8,01.16,0.508
2015-11-22 01:14:00,2137E-3,5C000400,-0724,0827,12451,023.9,045.3,0.264,759.7,01.16,0.508
2015-11-22 01:15:00,2089E-3,5C000400,-0724,0828,12356,023.9,045.3,0.264,759.8,01.16,0.508
2015-11-22 01:16:00,2149E-3,5C000400,-0724,0830,12437,023.9,045.3,0.264,759.7,01.16,0.508
2015-11-22 01:17:00,2236E-3,5C000400,-0724,0828,12241,023.9,045.3,0.264,759.5,01.16,0.508
2015-11-22 01:18:00,2154E-3,5C000400,-0724,0829,12485,023.9,045.3,0.265,759.8,01.16,0.508
2015-11-22 01:19:00,2234E-3,5C000400,-0724,0827,12086,023.9,045.3,0.264,759.8,01.16,0.508
2015-11-22 01:20:00,2007E-3,5C000400,-0724,0828,12349,023.9,045.3,0.264,759.6,01.16,0.508
2015-11-22 01:21:00,2202E-3,5C000400,-0724,0828,12100,023.9,045.3,0.265,759.8,01.16,0.508
2015-11-22 01:22:00,2040E-3,5C000400,-0724,0828,12188,023.9,045.3,0.265,759.8,01.16,0.508
2015-11-22 01:23:00,2299E-3,5C000400,-0724,0831,12335,023.9,045.3,0.264,760.0,01.16,0.508
2015-11-22 01:24:00,2185E-3,5C000400,-0724,0828,12058,023.9,045.3,0.264,759.7,01.16,0.508
2015-11-22 01:25:00,2119E-3,5C000400,-0724,0828,12128,023.8,045.3,0.265,759.9,01.16,0.508
2015-11-22 01:26:00,2189E-3,5C000400,-0724,0829,12289,023.8,045.3,0.264,759.8,01.16,0.508
2015-11-22 01:27:00,2257E-3,5C000400,-0724,0827,12297,023.8,045.3,0.265,760.0,01.16,0.508
2015-11-22 01:28:00,2163E-3,5C000400,-0724,0829,12276,023.8,045.3,0.264,760.1,01.16,0.508
2015-11-22 01:29:00,2258E-3,5C000400,-0724,0827,12258,023.8,045.3,0.265,759.9,01.16,0.508
2015-11-22 01:30:00,2294E-3,5C000400,-0724,0828,12232,023.8,045.3,0.265,759.9,01.16,0.508
2015-11-22 01:31:00,2244E-3,5C000400,-0724,0828,12216,023.8,045.3,0.265,759.9,01.16,0.508
2015-11-22 01:32:00,2159E-3,5C000400,-0724,0827,12181,023.8,045.3,0.264,759.9,01.16,0.508
2015-11-22 01:33:00,2212E-3,5C000400,-0724,0829,12367,023.8,045.3,0.265,760.1,01.16,0.508
2015-11-22 01:34:00,2229E-3,5C000400,-0724,0829,12097,023.8,045.3,0.264,760.0,01.16,0.508
2015-11-22 01:35:00,2136E-3,5C000400,-0724,0828,12169,023.8,045.3,0.265,759.9,01.16,0.508
2015-11-22 01:36:00,2214E-3,5C000400,-0724,0829,12215,023.8,045.3,0.265,760.0,01.16,0.508
2015-11-22 01:37:00,2294E-3,5C000400,-0724,0828,12113,023.8,045.3,0.264,759.9,01.16,0.508
2015-11-22 01:38:00,2210E-3,5C000400,-0724,0831,12191,023.8,045.3,0.265,760.0,01.16,0.508
2015-11-22 01:39:00,2183E-3,5C000400,-0724,0829,10986,023.8,045.3,0.265,760.1,01.16,0.508
2015-11-22 01:40:00,2112E-3,5C000400,-0724,0827,12260,023.8,045.3,0.264,760.1,01.16,0.508
2015-11-22 01:41:00,2328E-3,5C000400,-0724,0828,12309,023.8,045.3,0.265,759.9,01.16,0.508
2015-11-22 01:42:00,2152E-3,5C000400,-0724,0828,12216,023.8,045.3,0.264,760.0,01.16,0.508
2015-11-22 01:43:00,2267E-3,5C000400,-0724,0829,12228,023.8,045.3,0.264,759.8,01.16,0.508
2015-11-22 01:44:00,2015E-3,5C000400,-0724,0827,12224,023.7,045.3,0.265,760.1,01.16,0.508
2015-11-22 01:45:00,2225E-3,5C000400,-0724,0826,12218,023.7,045.3,0.265,760.0,01.16,0.508
2015-11-22 01:46:00,2378E-3,5C000400,-0724,0827,12335,023.7,045.3,0.264,760.0,01.16,0.508
2015-11-22 01:47:00,2239E-3,5C000400,-0724,0829,12366,023.7,045.3,0.265,760.0,01.16,0.508
2015-11-22 01:48:00,2032E-3,5C000400,-0724,0827,12192,023.7,045.3,0.265,759.9,01.16,0.508
2015-11-22 01:49:00,2095E-3,5C000400,-0724,0828,12163,023.7,045.3,0.265,759.7,01.16,0.508
2015-11-22 01:50:00,2373E-3,5C000400,-0724,0828,12252,023.7,045.3,0.265,759.8,01.16,0.508
2015-11-22 01:51:00,2302E-3,5C000400,-0724,0828,12103,023.7,045.3,0.265,759.9,01.16,0.508
2015-11-22 01:52:00,2276E-3,5C000400,-0724,0828,12420,023.7,045.3,0.265,759.9,01.16,0.508
2015-11-22 01:53:00,2143E-3,5C000400,-0724,0829,12039,023.7,045.3,0.265,760.1,01.16,0.508
2015-11-22 01:54:00,2191E-3,5C000400,-0724,0828,12256,023.7,045.3,0.264,760.1,01.16,0.508
2015-11-22 01:55:00,2058E-3,5C000400,-0724,0827,12322,023.7,045.3,0.265,760.2,01.16,0.508
2015-11-22 01:56:00,2279E-3,5C000400,-0724,0828,12280,023.7,045.3,0.265,760.2,01.16,0.508
2015-11-22 01:57:00,2373E-3,5C000400,-0724,0829,12245,023.7,045.3,0.264,760.2,01.16,0.508
2015-11-22 01:58:00,2235E-3,5C000400,-0724,0827,12230,023.7,045.3,0.265,760.3,01.16,0.508
2015-11-22 01:59:00,2128E-3,5C000400,-0724,0829,12195,023.7,045.3,0.265,760.4,01.16,0.508
2015-11-22 02:00:00,2124E-3,5C000400,-0724,0828,12155,023.7,045.3,0.264,760.5,01.16,0.508
2015-11-22 02:01:00,2308E-3,5C000400,-0724,0828,12276,023.7,045.3,0.265,760.5,01.16,0.508
2015-11-22 02:02:00,2363E-3,5C000400,-0724,0829,12167,023.7,045.3,0.265,760.5,01.16,0.508
2015-11-22 02:03:00,2185E-3,5C000400,-0724,0828,12220,023.7,045.3,0.264,760.4,01.16,0.508
2015-11-22 02:04:00,2098E-3,5C000400,-0724,0829,11051,023.7,045.3,0.265,760.4,01.16,0.508
2015-11-22 02:05:00,2082E-3,5C000400,-0724,0830,12218,023.7,045.3,0.265,760.5,01.16,0.508
2015-11-22 02:06:00,2185E-3,5C000400,-0724,0826,12240,023.7,045.3,0.264,760.5,01.16,0.508
2015-11-22 02:07:00,2234E-3,5C000400,-0724,0828,12332,023.7,045.3,0.265,760.3,01.16,0.508
2015-11-22 02:08:00,2268E-3,5C000400,-0724,0827,12081,023.7,045.3,0.265,760.4,01.16,0.508
2015-11-22 02:09:00,2097E-3,5C000400,-0724,0826,12150,023.6,045.3,0.264,760.4,01.16,0.508
2015-11-22 02:10:00,2116E-3,5C000400,-0724,0828,12240,023.7,045.3,0.265,760.3,01.16,0.508
2015-11-22 02:11:00,2158E-3,5C000400,-0724,0827,11251,023.7,045.3,0.265,760.4,01.16,0.508
2015-11-22 02:12:00,2200E-3,5C000400,-0724,0828,12362,023.7,045.3,0.264,760.3,01.16,0.508
2015-11-22 02:13:00,2142E-3,5C000400,-0724,0827,12247,023.7,045.3,0.265,760.3,01.16,0.508
2015-11-22 02:14:00,1982E-3,5C000400,-0724,0826,12268,023.7,045.3,0.265,760.3,01.16,0.508
2015-11-22 02:15:00,2191E-3,5C000400,-0724,0829,12387,023.6,045.3,0.264,760.3,01.16,0.508
2015-11-22 02:16:00,2328E-3,5C000400,-0724,0826,12140,023.6,045.3,0.265,759.9,01.16,0.508
2015-11-22 02:17:00,2152E-3,5C000400,-0724,0827,12186,023.6,045.3,0.265,760.1,01.16,0.508
2015-11-22 02:18:00,2072E-3,5C000400,-0724,0828,11976,023.6,045.3,0.264,760.0,01.16,0.508
2015-11-22 02:19:00,2131E-3,5C000400,-0724,0828,12434,023.6,045.3,0.265,759.9,01.16,0.508
2015-11-22 02:20:00,2150E-3,5C000400,-0724,0828,12316,023.6,045.3,0.265,759.9,01.16,0.508
2015-11-22 02:21:00,2149E-3,5C000400,-0724,0830,12510,023.6,045.3,0.265,760.1,01.16,0.508
2015-11-22 02:22:00,2169E-3,5C000400,-0724,0827,12231,023.6,045.3,0.265,759.8,01.16,0.508
2015-11-22 02:23:00,2314E-3,5C000400,-0724,0828,12162,023.6,045.3,0.265,759.8,01.16,0.508
2015-11-22 02:24:00,2249E-3,5C000400,-0724,0827,12413,023.6,045.3,0.265,759.8,01.16,0.508
2015-11-22 02:25:00,2210E-3,5C000400,-0724,0827,12254,023.6,045.3,0.265,760.0,01.16,0.508
2015-11-22 02:26:00,2070E-3,5C000400,-0724,0829,12199,023.6,045.3,0.265,760.0,01.16,0.508
2015-11-22 02:27:00,2143E-3,5C000400,-0724,0828,12165,023.6,045.3,0.265,760.0,01.16,0.508
2015-11-22 02:28:00,2139E-3,5C000400,-0724,0826,12327,023.6,045.3,0.265,760.1,01.16,0.508
2015-11-22 02:29:00,2201E-3,5C000400,-0724,0826,12435,023.6,045.3,0.265,760.1,01.16,0.508
2015-11-22 02:30:00,2244E-3,5C000400,-0724,0828,12381,023.6,045.3,0.265,760.1,01.16,0.508
2015-11-22 02:31:00,1974E-3,5C000400,-0724,0829,12331,023.6,045.3,0.265,760.1,01.16,0.508
2015-11-22 02:32:00,2145E-3,5C000400,-0724,0830,12236,023.6,045.3,0.265,760.1,01.16,0.508
2015-11-22 02:33:00,2237E-3,5C000400,-0724,0829,12446,023.6,045.3,0.265,760.0,01.16,0.508
2015-11-22 02:34:00,1993E-3,5C000400,-0724,0827,12276,023.6,045.3,0.265,760.1,01.16,0.508
2015-11-22 02:35:00,2047E-3,5C000400,-0724,0827,12357,023.6,045.3,0.265,760.2,01.16,0.508
2015-11-22 02:36:00,2103E-3,5C000400,-0724,0830,11276,023.6,045.3,0.265,760.0,01.16,0.508
2015-11-22 02:37:00,2245E-3,5C000400,-0724,0826,12073,023.6,045.3,0.265,760.3,01.16,0.508
2015-11-22 02:38:00,2130E-3,5C000400,-0724,0827,12335,023.6,045.3,0.265,760.0,01.16,0.508
2015-11-22 02:39:00,2205E-3,5C000400,-0724,0828,12320,023.5,045.3,0.265,760.1,01.16,0.508
2015-11-22 02:40:00,2139E-3,5C000400,-0724,0827,12221,023.5,045.3,0.265,760.2,01.16,0.508
2015-11-22 02:41:00,2103E-3,5C000400,-0724,0828,12193,023.5,045.3,0.265,760.1,01.16,0.508
2015-11-22 02:42:00,2242E-3,5C000400,-0724,0828,12311,023.5,045.3,0.265,760.1,01.16,0.508
2015-11-22 02:43:00,1969E-3,5C000400,-0724,0829,12300,023.5,045.3,0.265,760.1,01.16,0.508
2015-11-22 02:44:00,2221E-3,5C000400,-0724,0828,11131,023.5,045.3,0.265,760.3,01.16,0.508
2015-11-22 02:45:00,2223E-3,5C000400,-0724,0829,11047,023.5,045.3,0.265,760.3,01.16,0.508
2015-11-22 02:46:00,2258E-3,5C000400,-0724,0829,12323,023.5,045.3,0.265,760.4,01.16,0.508
2015-11-22 02:47:00,2228E-3,5C000400,-0724,0829,12290,023.5,045.3,0.265,760.4,01.16,0.508
2015-11-22 02:48:00,2093E-3,5C000400,-0724,0828,12085,023.5,045.3,0.265,760.3,01.16,0.508
2015-11-22 02:49:00,2053E-3,5C000400,-0724,0829,12301,023.5,045.3,0.265,760.3,01.16,0.508
2015-11-22 02:50:00,2206E-3,5C000400,-0724,0830,12157,023.5,045.3,0.265,760.3,01.16,0.508
2015-11-22 02:51:00,2210E-3,5C000400,-0724,0827,12290,023.6,045.3,0.265,760.1,01.16,0.508
2015-11-22 02:52:00,2167E-3,5C000400,-0724,0827,12078,023.5,045.3,0.265,760.0,01.16,0.508
2015-11-22 02:53:00,2146E-3,5C000400,-0724,0828,12342,023.5,045.3,0.265,760.3,01.16,0.508
2015-11-22 02:54:00,2353E-3,5C000400,-0724,0829,12257,023.5,045.3,0.265,760.0,01.16,0.508
2015-11-22 02:55:00,2200E-3,5C000400,-0724,0829,12155,023.5,045.3,0.265,760.2,01.16,0.508
2015-11-22 02:56:00,2077E-3,5C000400,-0724,0827,12125,023.6,045.3,0.265,760.4,01.16,0.508
2015-11-22 02:57:00,2237E-3,5C000400,-0724,0827,12157,023.5,045.3,0.265,760.4,01.16,0.508
2015-11-22 02:58:00,2164E-3,5C000400,-0724,0829,12359,023.5,045.3,0.265,760.2,01.16,0.508
2015-11-22 02:59:00,2133E-3,5C000400,-0724,0829,10964,023.5,045.3,0.265,760.3,01.16,0.508
2015-11-22 03:00:00,2196E-3,5C000400,-0724,0828,12327,023.5,045.3,0.265,760.2,01.16,0.508
2015-11-22 03:01:00,2154E-3,5C000400,-0724,0829,12310,023.5,045.3,0.265,760.2,01.16,0.508
2015-11-22 03:02:00,2294E-3,5C000400,-0724,0828,12307,023.5,045.3,0.265,760.5,01.16,0.508
2015-11-22 03:03:00,2200E-3,5C000400,-0724,0827,12192,023.5,045.3,0.265,760.5,01.16,0.508
2015-11-22 03:04:00,2227E-3,5C000400,-0724,0827,12359,023.5,045.3,0.265,760.4,01.16,0.508
2015-11-22 03:05:00,2276E-3,5C000400,-0724,0826,12111,023.5,045.3,0.265,760.1,01.16,0.508
2015-11-22 03:06:00,2214E-3,5C000400,-0724,0827,12236,023.5,045.3,0.265,760.1,01.16,0.508
2015-11-22 03:07:00,2064E-3,5C000400,-0724,0827,11111,023.5,045.3,0.265,760.6,01.16,0.508
2015-11-22 03:08:00,2120E-3,5C000400,-0724,0827,12266,023.5,045.3,0.265,760.3,01.16,0.508
2015-11-22 03:09:00,2156E-3,5C000400,-0724,0829,12342,023.5,045.3,0.265,760.2,01.16,0.508
2015-11-22 03:10:00,2135E-3,5C000400,-0724,0826,12170,023.5,045.3,0.265,760.4,01.16,0.508
2015-11-22 03:11:00,2165E-3,5C000400,-0724,0828,12153,023.5,045.3,0.265,760.3,01.16,0.508
2015-11-22 03:12:00,2409E-3,5C000400,-0724,0829,12149,023.5,045.3,0.265,760.4,01.16,0.508
2015-11-22 03:13:00,2204E-3,5C000400,-0724,0828,12178,023.5,045.3,0.265,760.3,01.16,0.508
2015-11-22 03:14:00,2024E-3,5C000400,-0724,0828,12315,023.5,045.3,0.265,760.2,01.16,0.508
2015-11-22 03:15:00,2242E-3,5C000400,-0724,0828,12286,023.5,045.3,0.265,760.1,01.16,0.508
2015-11-22 03:16:00,2190E-3,5C000400,-0724,0828,12283,023.5,045.3,0.265,760.3,01.16,0.508
2015-11-22 03:17:00,2045E-3,5C000400,-0724,0828,12314,023.5,045.3,0.265,759.9,01.16,0.508
2015-11-22 03:18:00,2147E-3,5C000400,-0724,0828,12387,023.5,045.3,0.265,760.2,01.16,0.508
2015-11-22 03:19:00,2166E-3,5C000400,-0724,0828,12302,023.5,045.3,0.265,760.0,01.16,0.508
2015-11-22 03:20:00,2062E-3,5C000400,-0724,0828,12381,023.5,045.3,0.266,760.1,01.16,0.508
2015-11-22 03:21:00,2206E-3,5C000400,-0724,0828,12231,023.5,045.3,0.265,760.0,01.16,0.508
2015-11-22 03:22:00,2176E-3,5C000400,-0724,0828,12387,023.5,045.3,0.265,760.2,01.16,0.508
2015-11-22 03:23:00,2329E-3,5C000400,-0724,0829,12254,023.5,045.3,0.265,760.0,01.16,0.508
2015-11-22 03:24:00,2258E-3,5C000400,-0724,0828,12253,023.5,045.3,0.265,760.2,01.16,0.508
2015-11-22 03:25:00,2118E-3,5C000400,-0724,0828,12425,023.4,045.3,0.265,759.9,01.16,0.508
2015-11-22 03:26:00,2153E-3,5C000400,-0724,0828,12285,023.5,045.3,0.265,760.1,01.16,0.508
2015-11-22 03:27:00,2099E-3,5C000400,-0724,0828,12371,023.5,045.3,0.265,760.1,01.16,0.508
2015-11-22 03:28:00,2226E-3,5C000400,-0724,0829,12152,023.5,045.3,0.265,760.3,01.16,0.508
2015-11-22 03:29:00,2108E-3,5C000400,-0724,0828,12258,023.5,045.3,0.265,760.2,01.16,0.508
2015-11-22 03:30:00,2080E-3,5C000400,-0724,0829,12472,023.4,045.3,0.265,760.3,01.16,0.508
2015-11-22 03:31:00,2258E-3,5C000400,-0724,0828,12391,023.5,045.3,0.265,760.5,01.16,0.508
2015-11-22 03:32:00,2120E-3,5C000400,-0724,0828,12273,023.4,045.3,0.265,760.4,01.16,0.508
2015-11-22 03:33:00,2171E-3,5C000400,-0724,0829,12373,023.5,045.3,0.265,760.5,01.16,0.508
2015-11-22 03:34:00,2138E-3,5C000400,-0724,0829,12263,023.5,045.3,0.265,760.5,01.16,0.508
2015-11-22 03:35:00,2155E-3,5C000400,-0724,0828,12353,023.4,045.3,0.265,760.5,01.16,0.508
2015-11-22 03:36:00,2107E-3,5C000400,-0724,0827,12234,023.4,045.3,0.266,760.4,01.16,0.508
2015-11-22 03:37:00,1991E-3,5C000400,-0724,0828,12397,023.5,045.3,0.265,760.4,01.16,0.508
2015-11-22 03:38:00,2351E-3,5C000400,-0724,0828,12203,023.5,045.3,0.266,760.5,01.16,0.508
2015-11-22 03:39:00,2008E-3,5C000400,-0724,0828,12207,023.5,045.3,0.265,760.4,01.16,0.508
2015-11-22 03:40:00,2074E-3,5C000400,-0724,0829,12335,023.4,045.3,0.265,760.6,01.16,0.508
2015-11-22 03:41:00,2036E-3,5C000400,-0724,0831,12455,023.4,045.3,0.266,760.6,01.16,0.508
2015-11-22 03:42:00,2068E-3,5C000400,-0724,0829,12328,023.4,045.3,0.265,760.6,01.16,0.508
2015-11-22 03:43:00,2157E-3,5C000400,-0724,0827,12239,023.4,045.3,0.265,760.5,01.16,0.508
2015-11-22 03:44:00,2111E-3,5C000400,-0724,0828,12294,023.4,045.3,0.265,760.4,01.16,0.508
2015-11-22 03:45:00,2192E-3,5C000400,-0724,0828,11049,023.4,045.3,0.265,760.8,01.16,0.508
2015-11-22 03:46:00,2335E-3,5C000400,-0724,0830,12269,023.5,045.3,0.265,760.6,01.16,0.508
2015-11-22 03:47:00,2175E-3,5C000400,-0724,0830,11102,023.4,045.3,0.265,760.6,01.16,0.508
2015-11-22 03:48:00,2237E-3,5C000400,-0724,0828,12286,023.4,045.3,0.265,760.7,01.16,0.508
2015-11-22 03:49:00,2215E-3,5C000400,-0724,0827,12286,023.4,045.3,0.266,760.7,01.16,0.508
2015-11-22 03:50:00,2224E-3,5C000400,-0724,0828,12224,023.4,045.3,0.265,760.7,01.16,0.508
2015-11-22 03:51:00,2208E-3,5C000400,-0724,0827,12150,023.4,045.3,0.265,760.6,01.16,0.508
2015-11-22 03:52:00,2171E-3,5C000400,-0724,0827,12158,023.4,045.3,0.266,760.7,01.16,0.508
2015-11-22 03:53:00,2264E-3,5C000400,-0724,0828,12290,023.4,045.3,0.265,760.5,01.16,0.508
2015-11-22 03:54:00,2175E-3,5C000400,-0724,0828,12212,023.4,045.3,0.265,760.8,01.16,0.508
2015-11-22 03:55:00,2244E-3,5C000400,-0724,0829,12456,023.4,045.3,0.265,760.7,01.16,0.508
2015-11-22 03:56:00,2218E-3,5C000400,-0724,0830,12216,023.4,045.3,0.265,760.7,01.16,0.508
2015-11-22 03:57:00,2169E-3,5C000400,-0724,0830,12397,023.4,045.3,0.266,760.6,01.16,0.508
2015-11-22 03:58:00,2022E-3,5C000400,-0724,0828,12224,023.4,045.3,0.265,760.5,01.16,0.508
2015-11-22 03:59:00,2184E-3,5C000400,-0724,0828,12208,023.4,045.3,0.265,760.5,01.16,0.508
2015-11-22 04:00:00,2217E-3,5C000400,-0724,0828,12309,023.4,045.3,0.265,760.5,01.16,0.508
2015-11-22 04:01:00,2145E-3,5C000400,-0724,0830,12208,023.4,045.3,0.265,760.3,01.16,0.508
2015-11-22 04:02:00,2260E-3,5C000400,-0724,0828,12254,023.4,045.3,0.265,760.7,01.16,0.508
2015-11-22 04:03:00,2160E-3,5C000400,-0724,0831,12346,023.4,045.3,0.265,760.6,01.16,0.508
2015-11-22 04:04:00,2100E-3,5C000400,-0724,0828,12074,023.4,045.3,0.265,760.6,01.16,0.508
2015-11-22 04:05:00,2223E-3,5C000400,-0724,0828,12205,023.4,045.3,0.265,760.9,01.16,0.508
2015-11-22 04:06:00,2170E-3,5C000400,-0724,0828,10982,023.4,045.3,0.265,760.8,01.16,0.508
2015-11-22 04:07:00,2270E-3,5C000400,-0724,0828,12262,023.4,045.3,0.265,760.7,01.16,0.508
2015-11-22 04:08:00,2166E-3,5C000400,-0724,0829,12372,023.4,045.3,0.265,760.7,01.16,0.508
2015-11-22 04:09:00,2228E-3,5C000400,-0724,0831,12313,023.4,045.3,0.265,760.8,01.16,0.508
2015-11-22 04:10:00,2186E-3,5C000400,-0724,0828,12146,023.4,045.3,0.265,760.5,01.16,0.508
2015-11-22 04:11:00,2193E-3,5C000400,-0724,0830,12202,023.4,045.3,0.265,760.7,01.16,0.508
2015-11-22 04:12:00,2055E-3,5C000400,-0724,0828,12282,023.3,045.3,0.265,760.8,01.16,0.508
2015-11-22 04:13:00,2208E-3,5C000400,-0724,0828,12253,023.3,045.3,0.265,760.6,01.16,0.508
2015-11-22 04:14:00,2007E-3,5C000400,-0724,0828,12270,023.3,045.3,0.265,760.5,01.16,0.508
2015-11-22 04:15:00,2248E-3,5C000400,-0724,0828,12286,023.3,045.3,0.265,760.6,01.16,0.508
2015-11-22 04:16:00,2263E-3,5C000400,-0724,0829,12354,023.3,045.3,0.265,760.5,01.16,0.508
2015-11-22 04:17:00,2173E-3,5C000400,-0724,0828,12191,023.4,045.3,0.265,760.3,01.16,0.508
2015-11-22 04:18:00,2254E-3,5C000400,-0724,0829,12259,023.3,045.3,0.266,760.3,01.16,0.508
2015-11-22 04:19:00,2249E-3,5C000400,-0724,0827,12385,023.4,045.3,0.265,760.3,01.16,0.508
2015-11-22 04:20:00,2318E-3,5C000400,-0724,0828,12243,023.3,045.3,0.265,760.1,01.16,0.508